FW0743 Weather Reports


Display with metric or nautical units.
time (UTC)temp
F
wind
direction
speed
MPH
gust
MPH
rain 1hr
in
rain 24hr
in
rain mn
in
humidity
%
barometer
mb
20210120041539 29 230 7.0 13.0 0.00 0.04 0.04 76 1014.2
20210120041033 30 236 5.0 13.0 0.00 0.04 0.04 73 1014.2
20210120040528 30 360 3.0 9.0 0.00 0.04 0.04 72 1014.2
20210120040034 30 207 3.0 8.0 0.00 0.04 0.04 71 1014.3
20210120035528 30 207 3.0 7.0 0.00 0.04 0.04 71 1014.3
20210120035029 30 360 3.0 7.0 0.00 0.04 0.04 71 1014.4
20210120034544 30 201 2.0 7.0 0.00 0.04 0.04 70 1014.5
20210120034022 30 197 3.0 9.0 0.00 0.04 0.04 70 1014.6
20210120033522 30 360 3.0 9.0 0.00 0.04 0.04 70 1014.7
20210120033044 30 360 4.0 10.0 0.00 0.04 0.04 69 1014.8
20210120032521 30 203 1.0 6.0 0.00 0.04 0.04 69 1014.9
20210120032021 30 223 3.0 6.0 0.00 0.04 0.04 69 1014.8
20210120031608 30 360 2.0 9.0 0.00 0.04 0.04 69 1014.9
20210120031025 30 214 3.0 9.0 0.00 0.04 0.04 68 1014.9
20210120030525 30 209 4.0 9.0 0.00 0.04 0.04 68 1015.0
20210120030044 30 360 2.0 6.0 0.00 0.04 0.04 68 1015.1
20210120025538 30 218 2.0 9.0 0.00 0.04 0.04 68 1015.2
20210120025034 30 243 3.0 10.0 0.00 0.04 0.04 68 1015.2
20210120024557 30 238 3.0 8.0 0.00 0.04 0.04 69 1015.3
20210120024035 30 239 2.0 8.0 0.00 0.04 0.04 68 1015.3
20210120023535 30 248 3.0 9.0 0.00 0.04 0.04 68 1015.4
20210120023045 30 214 4.0 10.0 0.00 0.04 0.04 68 1015.5
20210120022528 30 360 5.0 11.0 0.00 0.04 0.04 67 1015.5
20210120022020 30 227 4.0 11.0 0.00 0.04 0.04 68 1015.5
20210120021534 30 200 3.0 8.0 0.00 0.04 0.04 68 1015.5
20210120021022 30 360 2.0 7.0 0.00 0.04 0.04 68 1015.5
20210120020529 30 243 3.0 8.0 0.00 0.04 0.04 67 1015.6
20210120020034 30 252 2.0 10.0 0.00 0.04 0.04 67 1015.6
20210120015532 30 191 1.0 10.0 0.00 0.04 0.04 67 1015.8
20210120015102 30 215 5.0 15.0 0.00 0.04 0.04 66 1015.9
20210120014542 30 211 6.0 15.0 0.00 0.04 0.04 67 1015.9
20210120014032 30 213 4.0 11.0 0.00 0.04 0.04 67 1015.9
20210120013521 30 224 3.0 8.0 0.00 0.04 0.04 68 1016.0
20210120013033 30 244 3.0 11.0 0.00 0.04 0.04 67 1016.0
20210120012518 30 231 4.0 12.0 0.00 0.04 0.04 67 1016.1
20210120012049 30 257 4.0 10.0 0.00 0.04 0.04 67 1016.1
20210120011544 30 196 4.0 10.0 0.00 0.04 0.04 67 1016.2
20210120011026 30 360 4.0 9.0 0.00 0.04 0.04 68 1016.2
20210120010522 30 234 4.0 15.0 0.00 0.04 0.04 68 1016.3
20210120010116 30 223 5.0 15.0 0.00 0.04 0.04 68 1016.3
20210120005532 30 238 3.0 9.0 0.00 0.04 0.04 70 1016.4
20210120005033 30 213 4.0 9.0 0.00 0.04 0.04 71 1016.4
20210120004531 30 236 2.0 10.0 0.00 0.04 0.04 71 1016.3
20210120004031 30 360 3.0 9.0 0.00 0.04 0.04 71 1016.3
20210120003523 30 241 3.0 12.0 0.00 0.04 0.04 71 1016.3
20210120003118 31 196 3.0 12.0 0.00 0.04 0.04 71 1016.3
20210120002518 31 218 6.0 12.0 0.00 0.04 0.04 71 1016.3
20210120002025 31 230 4.0 12.0 0.00 0.04 0.04 72 1016.4
20210120001519 31 239 4.0 12.0 0.00 0.04 0.04 73 1016.5
20210120001046 30 234 3.0 9.0 0.00 0.04 0.04 74 1016.5
20210120000536 31 225 5.0 12.0 0.00 0.04 0.04 73 1016.5
20210120000028 31 250 5.0 14.0 0.00 0.04 0.04 73 1016.5
20210119235521 31 234 4.0 14.0 0.00 0.04 0.04 74 1016.5
20210119235030 31 224 7.0 16.0 0.00 0.04 0.04 75 1016.4
20210119234610 31 360 5.0 16.0 0.00 0.04 0.04 76 1016.4
20210119234029 31 255 6.0 16.0 0.00 0.04 0.04 77 1016.4
20210119233528 31 236 5.0 12.0 0.00 0.04 0.04 80 1016.3
20210119233050 31 229 3.0 9.0 0.00 0.04 0.04 82 1016.2
20210119232524 31 232 4.0 12.0 0.00 0.04 0.04 83 1016.1
20210119232025 30 230 5.0 14.0 0.00 0.04 0.04 85 1016.1
20210119231521 30 234 2.0 14.0 0.00 0.04 0.04 87 1016.2
20210119231024 30 246 1.0 10.0 0.00 0.04 0.04 89 1016.2
20210119230516 30 236 3.0 11.0 0.00 0.04 0.04 89 1016.2
20210119230030 30 262 5.0 14.0 0.00 0.04 0.04 90 1016.2
20210119225520 30 215 7.0 14.0 0.00 0.04 0.04 91 1016.2
20210119225025 30 239 5.0 16.0 0.00 0.04 0.04 92 1016.1
20210119224542 30 229 4.0 11.0 0.00 0.04 0.04 93 1016.1
20210119224027 30 219 5.0 10.0 0.00 0.04 0.04 94 1016.0
20210119223526 30 217 3.0 11.0 0.00 0.04 0.04 94 1016.0
20210119223034 30 255 4.0 11.0 0.00 0.04 0.04 94 1016.0
20210119222520 30 360 6.0 12.0 0.00 0.04 0.04 93 1016.1
20210119222021 30 258 6.0 17.0 0.00 0.04 0.04 93 1016.1
20210119221539 31 279 8.0 17.0 0.00 0.04 0.04 92 1016.0
20210119221025 31 271 5.0 16.0 0.00 0.04 0.04 91 1016.0
20210119220518 32 273 6.0 16.0 0.00 0.04 0.04 89 1015.7
20210119220026 32 262 4.0 7.0 0.00 0.04 0.04 88 1015.6
20210119215504 32 238 3.0 6.0 0.00 0.04 0.04 89 1015.5
20210119215011 32 246 3.0 8.0 0.00 0.04 0.04 89 1015.4
20210119214523 32 240 3.0 8.0 0.00 0.04 0.04 89 1015.4
20210119214018 31 225 3.0 9.0 0.00 0.04 0.04 89 1015.4
20210119213516 31 217 3.0 12.0 0.00 0.04 0.04 89 1015.4
20210119213011 31 223 6.0 12.0 0.00 0.04 0.04 90 1015.4
20210119212501 31 248 3.0 8.0 0.00 0.04 0.04 90 1015.2
20210119212105 31 246 4.0 9.0 0.00 0.04 0.04 90 1015.2
20210119211653 31 236 3.0 9.0 0.00 0.04 0.04 90 1015.2
20210119211127 31 243 2.0 9.0 0.00 0.04 0.04 90 1015.1
20210119210601 31 240 4.0 13.0 0.00 0.04 0.04 90 1015.0
20210119210226 31 258 6.0 13.0 0.00 0.04 0.04 89 1015.0
20210119205605 32 242 7.0 12.0 0.00 0.04 0.04 88 1014.9
20210119205104 32 236 4.0 14.0 0.00 0.04 0.04 86 1014.9
20210119204704 33 245 7.0 14.0 0.00 0.04 0.04 83 1015.0
20210119204058 33 239 6.0 15.0 0.01 0.04 0.04 76 1014.9
20210119203602 33 229 4.0 9.0 0.01 0.04 0.04 78 1014.7
20210119203128 33 242 3.0 9.0 0.01 0.04 0.04 80 1014.7
20210119202607 33 270 2.0 8.0 0.01 0.04 0.04 82 1014.6
20210119202057 32 265 4.0 10.0 0.01 0.04 0.04 84 1014.6
20210119201657 32 285 3.0 11.0 0.01 0.04 0.04 86 1014.6
20210119201057 32 284 4.0 11.0 0.01 0.04 0.04 87 1014.6
20210119200557 32 284 4.0 22.0 0.01 0.04 0.04 86 1014.7
20210119200259 33 278 7.0 22.0 0.01 0.04 0.04 84 1014.6
20210119195557 34 268 11.0 19.0 0.01 0.04 0.04 76 1014.6
20210119195058 35 253 6.0 13.0 0.01 0.04 0.04 70 1014.4
20210119194816 35 250 6.0 19.0 0.01 0.04 0.04 69 1014.2
20210119194109 35 245 8.0 19.0 0.00 0.03 0.03 68 1014.2
20210119193559 35 253 9.0 20.0 0.00 0.03 0.03 68 1014.0
20210119193130 36 265 11.0 23.0 0.00 0.03 0.03 68 1014.0
20210119192606 36 260 10.0 23.0 0.00 0.03 0.03 69 1014.0
20210119192104 36 271 6.0 14.0 0.00 0.03 0.03 72 1013.9
20210119191609 36 232 6.0 13.0 0.00 0.03 0.03 73 1014.0
20210119191101 36 257 5.0 13.0 0.00 0.03 0.03 75 1014.0
20210119190553 35 259 7.0 13.0 0.00 0.03 0.03 75 1014.0
20210119190219 35 232 4.0 12.0 0.00 0.03 0.03 76 1013.9
20210119185551 35 265 6.0 17.0 0.00 0.03 0.03 75 1014.0
20210119185052 35 259 8.0 17.0 0.00 0.03 0.03 76 1014.0
20210119184655 34 243 8.0 14.0 0.00 0.03 0.03 77 1014.0
20210119184058 34 228 5.0 11.0 0.00 0.03 0.03 77 1014.0
20210119183551 34 253 6.0 13.0 0.00 0.03 0.03 77 1014.0
20210119183149 34 249 5.0 13.0 0.00 0.03 0.03 77 1013.9
20210119182558 34 252 3.0 11.0 0.01 0.03 0.03 77 1013.9
20210119182048 34 261 5.0 13.0 0.01 0.03 0.03 76 1013.9
20210119181638 34 269 5.0 13.0 0.01 0.03 0.03 77 1013.9
20210119181053 34 244 5.0 15.0 0.01 0.03 0.03 77 1013.9
20210119180631 34 255 7.0 15.0 0.01 0.03 0.03 77 1013.8
20210119180214 34 238 5.0 15.0 0.01 0.03 0.03 78 1013.7
20210119175553 34 244 4.0 15.0 0.01 0.03 0.03 78 1013.7
20210119175047 34 260 8.0 14.0 0.01 0.03 0.03 78 1013.7
20210119174624 34 279 6.0 14.0 0.01 0.03 0.03 78 1013.7
20210119174046 34 244 4.0 12.0 0.02 0.03 0.03 79 1013.8
20210119173545 34 240 5.0 11.0 0.02 0.03 0.03 79 1013.7
20210119173206 34 242 4.0 12.0 0.01 0.02 0.02 80 1013.9
20210119172546 34 229 7.0 12.0 0.01 0.02 0.02 80 1013.9
20210119172103 34 245 6.0 11.0 0.01 0.02 0.02 80 1014.0
20210119171651 34 268 5.0 11.0 0.02 0.02 0.02 80 1014.0
20210119171051 34 221 5.0 14.0 0.02 0.02 0.02 80 1013.9
20210119170557 34 288 5.0 15.0 0.02 0.02 0.02 80 1014.1
20210119170131 34 238 8.0 19.0 0.02 0.02 0.02 79 1014.1
20210119165544 34 251 6.0 12.0 0.02 0.02 0.02 79 1014.3
20210119165046 34 259 4.0 17.0 0.02 0.02 0.02 81 1014.3
20210119164630 34 239 6.0 17.0 0.02 0.02 0.02 81 1014.3
20210119164042 34 259 7.0 17.0 0.01 0.01 0.01 80 1014.4
20210119163539 34 217 5.0 14.0 0.01 0.01 0.01 80 1014.4
20210119163204 34 238 5.0 15.0 0.01 0.01 0.01 79 1014.5
20210119162542 34 241 8.0 16.0 0.01 0.01 0.01 79 1014.5
20210119162103 34 217 6.0 13.0 0.01 0.01 0.01 79 1014.6
20210119161651 34 243 3.0 11.0 0.00 0.00 0.00 80 1014.6
20210119161040 34 231 6.0 12.0 0.00 0.00 0.00 81 1014.6
20210119160534 34 227 2.0 10.0 0.00 0.00 0.00 82 1014.6
20210119160122 33 229 4.0 10.0 0.00 0.00 0.00 81 1014.8
20210119155532 33 240 3.0 10.0 0.00 0.00 0.00 82 1014.8
20210119155033 33 205 5.0 10.0 0.00 0.00 0.00 83 1014.8
20210119154539 33 237 5.0 9.0 0.00 0.00 0.00 83 1014.9
20210119154032 33 234 5.0 8.0 0.00 0.00 0.00 85 1015.0
20210119153544 33 217 5.0 8.0 0.00 0.00 0.00 85 1015.0
20210119153104 32 232 3.0 8.0 0.00 0.00 0.00 87 1015.1
20210119152534 32 225 4.0 8.0 0.00 0.00 0.00 87 1015.1
20210119152031 32 219 4.0 8.0 0.00 0.00 0.00 89 1015.1
20210119151539 32 204 1.0 8.0 0.00 0.00 0.00 91 1015.1
20210119151022 32 213 2.0 8.0 0.00 0.00 0.00 92 1015.1
20210119150523 31 202 2.0 6.0 0.00 0.00 0.00 93 1015.0
20210119150024 31 360 2.0 6.0 0.00 0.00 0.00 93 1015.0
20210119145528 31 193 3.0 7.0 0.00 0.00 0.00 94 1015.0
20210119145037 31 192 2.0 4.0 0.00 0.00 0.00 94 1015.0
20210119144523 30 215 2.0 5.0 0.00 0.00 0.00 94 1015.0
20210119144027 30 207 2.0 6.0 0.00 0.00 0.00 95 1015.0
20210119143520 30 206 2.0 6.0 0.00 0.00 0.00 94 1015.0
20210119143028 30 204 2.0 5.0 0.00 0.00 0.00 95 1014.9
20210119142523 30 191 2.0 4.0 0.00 0.00 0.00 95 1014.9
20210119142021 30 208 2.0 4.0 0.00 0.00 0.00 95 1014.9
20210119141534 29 192 1.0 4.0 0.00 0.00 0.00 95 1014.9
20210119141030 29 192 1.0 3.0 0.00 0.00 0.00 95 1014.8
20210119140514 29 178 1.0 3.0 0.00 0.00 0.00 95 1014.8
20210119140030 29 184 1.0 4.0 0.00 0.00 0.00 95 1014.8
20210119135519 29 186 2.0 4.0 0.00 0.00 0.00 95 1014.8
20210119135022 28 186 1.0 3.0 0.00 0.00 0.00 95 1014.8
20210119134517 28 179 1.0 5.0 0.00 0.00 0.00 95 1014.9
20210119134024 28 162 2.0 6.0 0.00 0.00 0.00 95 1014.8
20210119133511 28 180 1.0 5.0 0.00 0.00 0.00 95 1014.8
20210119133022 28 196 2.0 5.0 0.00 0.00 0.00 95 1014.8
20210119132103 28 188 1.0 4.0 0.00 0.00 0.00 95 1014.7
20210119131743 28 184 2.0 5.0 0.00 0.00 0.00 95 1014.8
20210119131100 27 182 2.0 4.0 0.00 0.00 0.00 95 1014.8
20210119130600 27 177 2.0 4.0 0.00 0.00 0.00 95 1014.7
20210119130259 27 181 2.0 4.0 0.00 0.00 0.00 95 1014.8
20210119125557 27 182 0.0 5.0 0.00 0.00 0.00 95 1014.7
20210119125134 27 173 2.0 5.0 0.00 0.00 0.00 95 1014.6
20210119124703 27 173 1.0 5.0 0.00 0.00 0.00 95 1014.7
20210119124054 27 176 2.0 4.0 0.00 0.00 0.00 95 1014.7
20210119123605 27 175 2.0 4.0 0.00 0.00 0.00 95 1014.7
20210119123126 27 182 2.0 4.0 0.00 0.00 0.00 95 1014.7
20210119122555 27 175 2.0 5.0 0.00 0.00 0.00 95 1014.7
20210119122111 27 169 2.0 5.0 0.00 0.00 0.00 95 1014.7
20210119121611 27 177 1.0 3.0 0.00 0.00 0.00 95 1014.7
20210119121057 27 173 1.0 3.0 0.00 0.00 0.00 95 1014.7
20210119120602 27 175 1.0 3.0 0.00 0.00 0.00 95 1014.8
20210119120132 26 167 1.0 3.0 0.00 0.00 0.00 95 1014.7
20210119115608 26 163 1.0 3.0 0.00 0.00 0.00 95 1014.7
20210119115052 26 169 1.0 4.0 0.00 0.00 0.00 95 1014.7
20210119114641 26 172 1.0 5.0 0.00 0.00 0.00 95 1014.8
20210119114109 26 169 1.0 3.0 0.00 0.00 0.00 94 1014.7
20210119113557 26 170 1.0 3.0 0.00 0.00 0.00 94 1014.7
20210119113054 26 171 2.0 3.0 0.00 0.00 0.00 94 1014.7
20210119112550 26 172 1.0 3.0 0.00 0.00 0.00 94 1014.7
20210119112052 26 180 1.0 3.0 0.00 0.00 0.00 94 1014.7
20210119111637 26 182 1.0 3.0 0.00 0.00 0.00 94 1014.7
20210119111102 26 169 1.0 2.0 0.00 0.00 0.00 94 1014.7
20210119110556 26 169 0.0 3.0 0.00 0.00 0.00 94 1014.6
20210119110152 26 169 1.0 2.0 0.00 0.00 0.00 94 1014.7
20210119105618 26 185 1.0 2.0 0.00 0.00 0.00 95 1014.7
20210119105050 26 185 1.0 2.0 0.00 0.00 0.00 95 1014.7
20210119104718 26 186 1.0 3.0 0.00 0.00 0.00 95 1014.7
20210119104048 26 187 1.0 3.0 0.00 0.00 0.00 95 1014.6
20210119103547 26 175 1.0 3.0 0.00 0.00 0.00 95 1014.6
20210119103100 26 180 1.0 3.0 0.00 0.00 0.00 95 1014.5
20210119102545 26 169 0.0 0.0 0.00 0.00 0.00 94 1014.5
20210119102045 26 177 0.0 0.0 0.00 0.00 0.00 94 1014.5
20210119101701 25 177 0.0 0.0 0.00 0.00 0.00 94 1014.5
20210119101053 25 178 0.0 2.0 0.00 0.00 0.00 94 1014.5
20210119100545 25 177 0.0 2.0 0.00 0.00 0.00 94 1014.6
20210119100128 25 178 0.0 2.0 0.00 0.00 0.00 94 1014.5
20210119095554 25 177 0.0 3.0 0.00 0.00 0.00 94 1014.5
20210119095044 25 177 1.0 3.0 0.00 0.00 0.00 94 1014.4
20210119094601 25 178 0.0 2.0 0.00 0.00 0.00 94 1014.3
20210119094058 25 178 1.0 2.0 0.00 0.00 0.00 94 1014.4
20210119093543 25 178 1.0 3.0 0.00 0.00 0.00 94 1014.3
20210119093057 25 178 1.0 3.0 0.00 0.00 0.00 94 1014.3
20210119092549 25 153 0.0 3.0 0.00 0.00 0.00 94 1014.3
20210119092041 25 150 0.0 2.0 0.00 0.00 0.00 94 1014.3
20210119091545 25 149 0.0 0.0 0.00 0.00 0.00 94 1014.2
20210119091041 25 149 0.0 0.0 0.00 0.00 0.00 94 1014.2
20210119090558 25 149 0.0 0.0 0.00 0.00 0.00 94 1014.2
20210119090130 25 149 0.0 0.0 0.00 0.00 0.00 94 1014.2
20210119085537 24 149 0.0 0.0 0.00 0.00 0.00 94 1014.2
20210119085038 24 148 0.0 0.0 0.00 0.00 0.00 94 1014.1
20210119084624 24 148 0.0 0.0 0.00 0.00 0.00 94 1014.1
20210119084044 24 148 0.0 0.0 0.00 0.00 0.00 94 1014.1
20210119083538 24 148 0.0 0.0 0.00 0.00 0.00 94 1014.1
20210119083137 24 148 0.0 0.0 0.00 0.00 0.00 94 1014.1
20210119082546 24 148 0.0 0.0 0.00 0.00 0.00 94 1014.0
20210119082041 24 148 0.0 0.0 0.00 0.00 0.00 94 1014.1
20210119081542 24 148 0.0 0.0 0.00 0.00 0.00 94 1014.0
20210119081044 24 148 0.0 0.0 0.00 0.00 0.00 94 1014.1
20210119080536 24 149 0.0 2.0 0.00 0.00 0.00 94 1014.0
20210119080223 24 148 0.0 3.0 0.00 0.00 0.00 94 1014.0
20210119075550 24 148 1.0 3.0 0.00 0.00 0.00 94 1013.9
20210119075055 24 121 0.0 0.0 0.00 0.00 0.00 94 1013.8
20210119074620 24 121 0.0 0.0 0.00 0.00 0.00 94 1014.0
20210119074035 24 121 0.0 0.0 0.00 0.00 0.00 94 1014.0
20210119073540 24 121 0.0 0.0 0.00 0.00 0.00 94 1014.0
20210119073111 24 121 0.0 0.0 0.00 0.00 0.00 94 1013.9
20210119072543 24 120 0.0 0.0 0.00 0.00 0.00 94 1014.0
20210119072036 24 121 0.0 0.0 0.00 0.00 0.00 94 1013.9
20210119071621 24 121 0.0 0.0 0.00 0.00 0.00 94 1013.8
20210119071042 24 121 0.0 0.0 0.00 0.00 0.00 94 1013.9
20210119070533 24 121 0.0 0.0 0.00 0.00 0.00 94 1013.7
20210119070052 24 121 0.0 0.0 0.00 0.00 0.00 94 1013.7
20210119065532 24 121 0.0 0.0 0.00 0.00 0.00 94 1013.7
20210119065027 24 121 0.0 0.0 0.00 0.00 0.00 94 1013.6
20210119064557 24 121 0.0 0.0 0.00 0.00 0.00 94 1013.6
20210119064043 24 121 0.0 0.0 0.00 0.00 0.00 94 1013.6
20210119063541 24 121 0.0 0.0 0.00 0.00 0.00 94 1013.7
20210119063042 24 120 0.0 0.0 0.00 0.00 0.00 94 1013.6
20210119062555 23 120 0.0 0.0 0.00 0.00 0.00 94 1013.6
20210119062031 23 119 0.0 0.0 0.00 0.00 0.00 94 1013.5
20210119061524 23 119 0.0 0.0 0.00 0.00 0.00 94 1013.4
20210119061043 23 119 0.0 0.0 0.00 0.00 0.00 94 1013.4
20210119060528 23 118 0.0 0.0 0.00 0.00 0.00 94 1013.4
20210119060045 23 118 0.0 0.0 0.00 0.00 0.00 94 1013.3
20210119055536 23 118 0.0 0.0 0.00 0.00 0.00 94 1013.3
20210119055036 23 117 0.0 0.0 0.00 0.00 0.00 94 1013.2
20210119054546 23 117 0.0 0.0 0.00 0.00 0.00 94 1013.2
20210119054040 22 117 0.0 0.0 0.00 0.00 0.00 94 1013.2
20210119053521 22 117 0.0 0.0 0.00 0.00 0.00 94 1013.3
20210119053043 22 116 0.0 0.0 0.00 0.00 0.00 94 1013.3
20210119052524 22 116 0.0 0.0 0.00 0.00 0.00 94 1013.3
20210119052023 22 116 0.0 0.0 0.00 0.00 0.00 94 1013.2
20210119051530 22 115 0.0 0.0 0.00 0.00 0.00 94 1013.2
20210119051017 22 115 0.0 0.0 0.00 0.00 0.00 93 1013.2
20210119050518 22 115 0.0 0.0 0.00 0.00 0.00 93 1013.1
20210119050032 22 115 0.0 0.0 0.00 0.00 0.00 93 1013.1
20210119045536 22 115 0.0 0.0 0.00 0.00 0.00 93 1013.1
20210119045023 22 115 0.0 0.0 0.00 0.00 0.00 93 1013.0
20210119044521 22 115 0.0 0.0 0.00 0.00 0.00 93 1013.0
20210119044024 22 115 0.0 0.0 0.00 0.00 0.00 93 1013.0
20210119043523 22 111 0.0 0.0 0.00 0.00 0.00 93 1012.9
20210119043021 22 109 0.0 0.0 0.00 0.00 0.00 93 1012.9
20210119042517 22 100 0.0 0.0 0.00 0.00 0.00 93 1012.9
20210119042020 22 100 0.0 0.0 0.00 0.00 0.00 93 1012.9